Theta_e
292 292 291 291 291 290 290 290 290 291 290 290 290 290 289 289 289 289 289 289 288 288 287 287 287 289 290 292 294 293 291 290 283 283 286 285 285 285 287 288 289 290 291
290 290 290 290 289 288 288 288 289 289 289 288 288 288 288 288 288 287 287 288 287 286 286 285 285 287 287 291 292 291 289 289 285 282 284 284 284 285 286 287 288 289 289
289 289 289 288 288 287 287 287 287 287 287 288 287 286 286 286 285 286 286 286 286 285 285 285 284 284 284 287 289 290 288 289 288 285 283 285 285 285 285 286 286 286 288
288 288 287 287 287 287 286 286 286 286 285 286 286 286 286 286 285 285 285 284 284 284 284 285 285 283 283 285 288 288 288 288 287 285 283 283 283 285 285 283 281 283 282
286 286 286 287 287 286 285 285 285 285 284 285 285 285 285 285 286 284 284 283 282 282 283 284 284 284 285 286 286 287 288 285 284 284 282 282 281 282 282 283 280 280 280
285 285 286 286 285 285 284 284 284 284 284 284 284 284 284 285 286 285 284 282 282 282 282 283 285 284 284 285 286 286 288 286 284 283 282 281 281 282 283 281 279 278 276
284 284 284 285 284 284 284 284 283 283 283 283 283 283 283 284 285 285 284 283 281 282 282 282 284 285 284 282 283 283 283 286 288 285 283 282 282 283 282 280 280 279 277
284 283 283 283 283 283 283 283 283 283 282 282 282 283 283 283 285 285 284 282 282 282 282 281 283 283 283 283 280 279 279 281 283 284 284 284 284 284 282 281 279 276 276
282 282 282 282 282 282 282 282 282 282 282 282 282 281 282 282 284 284 283 282 281 280 281 281 281 282 283 283 281 278 277 278 281 282 283 285 285 285 282 280 277 277 275
282 282 282 282 282 281 282 282 282 282 282 282 281 282 282 282 284 284 283 281 280 280 280 280 281 281 283 282 278 277 276 276 278 277 276 277 278 278 279 279 279 277 275
281 280 280 281 281 282 282 282 282 281 281 281 280 281 281 282 282 283 283 281 280 279 279 279 279 281 281 281 279 277 276 277 278 277 276 275 274 273 273 274 274 276 275
279 278 278 279 280 281 280 281 281 281 280 280 280 280 281 281 282 282 283 282 282 279 278 278 278 279 278 279 278 278 278 278 276 275 273 272 271 270 270 270 271 271 271
277 275 276 277 279 280 280 280 280 281 280 280 279 279 279 280 280 282 282 282 282 279 279 278 278 278 277 275 277 276 274 275 275 272 271 270 270 271 271 270 268 267 266
275 275 275 276 277 278 280 281 281 280 279 279 279 278 278 278 279 280 280 280 282 280 279 277 278 277 277 276 272 273 272 272 272 272 271 270 271 270 268 269 269 269 269
275 275 276 276 277 277 279 279 279 279 280 278 278 278 277 276 278 280 279 278 279 278 277 276 274 273 272 272 272 271 270 269 269 270 271 270 270 270 267 268 267 268 266
275 275 275 275 276 277 277 277 280 280 279 279 279 279 278 278 279 279 278 278 278 278 274 272 271 271 270 270 269 269 268 266 265 268 269 269 268 268 267 267 267 267 264
276 275 275 275 275 275 277 276 274 276 278 277 278 278 277 277 277 277 276 276 277 275 271 270 270 270 269 269 268 268 267 267 264 266 266 265 266 266 267 266 266 266 263
277 275 275 275 275 275 276 277 275 274 273 272 274 276 276 276 275 276 275 275 271 270 269 268 268 268 268 268 267 266 267 266 266 265 264 262 262 264 265 264 263 261 262
276 275 276 275 275 275 274 274 274 274 273 272 271 272 269 273 273 273 273 269 268 267 268 267 267 267 267 267 266 266 265 263 262 262 262 260 260 261 261 260 260 257 257
276 274 274 273 271 272 273 272 272 272 271 271 271 270 270 268 269 267 267 267 267 266 266 266 266 265 265 265 265 265 265 264 263 262 261 260 260 260 260 260 258 260 258
275 273 273 272 272 272 272 272 272 271 271 271 269 269 269 268 267 266 265 265 265 265 265 265 265 264 264 264 264 264 263 263 261 261 260 260 259 259 258 258 258 257 256
274 273 273 272 272 272 272 272 271 271 271 269 268 270 269 267 267 266 265 264 263 263 263 263 264 263 261 261 261 262 261 261 260 260 259 257 258 258 258 258 257 258 257
274 272 272 272 271 271 270 270 270 270 270 270 268 267 266 267 266 266 265 264 263 262 262 262 262 260 260 260 260 259 259 258 257 256 257 258 257 258 257 259 259 259 259
274 273 272 271 270 270 270 269 270 270 270 269 268 268 267 266 266 265 264 263 262 262 261 259 259 258 257 258 260 259 258 256 256 256 254 256 256 256 255 254 255 257 258
275 273 272 271 269 270 270 269 269 269 269 269 269 268 267 266 265 265 264 262 260 261 260 258 258 258 256 255 256 256 256 255 254 253 254 255 254 253 252 253 253 254 254
275 273 272 271 270 271 270 270 269 269 268 269 269 268 267 266 266 266 264 262 260 260 260 259 258 257 257 257 257 259 261 261 255 254 253 255 254 253 253 252 252 253 253
Wind_Speed
8 9 9 10 11 11 11 12 13 13 14 15 15 15 15 15 15 14 14 14 14 14 14 14 15 15 9 8 7 5 5 3 9 3 3 4 6 7 8 11 11 12 12
7 8 9 9 11 11 12 13 13 14 13 14 14 15 16 16 15 15 14 14 14 15 15 15 16 13 15 12 7 7 6 6 6 12 4 4 7 6 9 12 10 11 11
6 6 8 9 10 11 12 12 12 12 13 13 14 15 15 15 16 14 14 14 14 15 15 14 16 16 16 13 10 7 6 5 5 5 6 3 5 5 10 10 11 11 9
6 6 8 9 10 10 10 11 11 12 13 13 13 13 12 14 15 14 14 13 14 14 15 15 14 15 15 16 10 8 6 4 4 7 7 5 4 4 7 9 9 7 7
6 7 8 8 8 8 9 10 10 11 11 12 12 13 13 13 10 14 13 13 13 14 13 13 14 13 16 19 11 10 5 4 4 4 5 6 4 2 5 5 7 8 6
7 6 6 7 7 7 7 8 9 10 11 11 12 12 13 10 20 18 14 11 13 12 13 14 12 15 15 20 21 23 18 4 5 2 2 5 4 6 5 6 7 4 3
7 6 5 6 6 6 7 8 9 10 10 10 11 11 12 12 21 19 16 10 11 11 13 14 12 10 14 11 15 19 21 21 16 5 5 4 4 2 5 7 4 3 4
7 6 5 5 5 5 6 8 8 8 9 8 10 11 11 11 21 19 15 10 10 11 11 14 16 14 17 13 9 10 11 14 13 8 8 6 4 4 5 4 6 6 6
8 6 5 4 5 5 7 8 7 7 7 8 8 10 11 12 19 19 13 9 10 11 11 12 15 14 23 23 11 9 9 9 12 20 21 20 16 13 9 6 4 4 2
7 7 6 4 4 6 7 7 5 6 6 5 7 8 11 11 19 19 13 7 10 8 10 11 20 16 22 22 13 11 9 10 8 9 8 11 12 12 16 8 1 2 2
7 6 6 5 4 5 6 5 5 6 5 5 6 6 8 10 11 18 17 8 7 7 8 8 9 20 21 20 18 11 11 8 9 7 7 7 9 9 8 8 9 5 2
9 6 6 5 4 4 4 6 4 4 4 4 4 4 5 7 13 15 15 13 11 8 9 7 8 18 18 20 14 17 15 10 5 6 7 7 7 7 7 7 9 8 8
8 8 5 5 5 4 3 4 4 2 2 4 4 4 5 6 7 15 15 14 10 7 6 10 14 16 17 13 20 19 13 7 6 7 6 6 5 2 2 2 3 5 7
11 9 7 6 5 4 2 2 3 2 3 4 4 4 5 6 7 7 7 7 8 7 8 7 11 12 15 11 8 11 8 7 7 5 4 2 1 2 3 2 2 3 3
10 9 9 6 6 5 4 3 3 5 4 4 4 4 5 5 6 9 10 7 6 6 5 6 7 7 7 7 7 7 7 7 7 6 5 4 3 3 3 3 3 3 4
11 8 7 7 6 5 6 6 8 8 9 8 8 6 3 8 9 9 12 12 11 7 5 7 7 7 7 7 7 7 7 7 6 6 5 5 4 4 3 3 3 4 4
12 11 8 7 6 6 5 6 6 5 10 8 9 9 8 8 10 9 8 11 14 8 6 7 6 6 6 6 6 6 6 5 3 4 4 4 4 3 4 4 3 3 3
11 13 9 7 7 6 5 5 5 4 4 3 7 8 7 8 10 10 5 7 5 7 5 6 5 5 5 5 5 5 5 5 5 4 4 3 3 2 3 3 3 3 3
11 9 8 7 6 6 5 5 3 3 3 3 3 2 5 6 7 10 11 6 5 4 4 4 4 3 3 3 2 2 2 3 2 2 2 2 3 3 3 2 2 3 3
9 13 10 8 7 7 5 5 4 4 4 3 2 2 1 1 3 3 4 4 4 3 3 3 3 2 2 2 2 2 3 3 3 3 3 3 3 2 3 3 3 3 3
9 9 11 8 8 7 6 6 5 4 4 3 3 2 4 2 3 1 1 2 3 2 2 2 3 2 2 2 2 2 2 2 2 3 2 3 3 3 2 2 2 2 2
10 10 9 9 8 8 7 6 5 5 5 5 4 4 6 2 3 2 1 1 2 1 1 2 2 3 1 2 2 2 2 2 3 3 2 2 2 2 2 2 2 1 2
11 11 10 8 8 9 8 7 6 6 6 6 6 5 4 4 3 3 3 2 2 2 1 1 1 3 2 0 1 2 2 2 2 2 2 2 2 3 2 2 2 2 2
13 13 12 10 9 7 7 7 6 7 7 7 6 6 5 4 4 4 2 2 1 2 2 2 1 2 3 3 0 2 2 0 1 1 2 2 2 2 2 2 2 2 2
13 13 13 12 12 11 10 8 8 7 7 7 6 5 5 5 3 4 4 2 2 2 3 3 2 3 3 4 3 1 2 3 2 1 0 1 3 3 2 2 2 2 3
12 13 12 11 11 10 10 10 9 9 9 8 7 7 6 6 5 5 5 4 3 3 3 2 3 5 4 4 5 4 3 5 3 2 1 2 2 2 2 2 2 2 2
Wind_Direction
39 35 33 30 31 33 32 30 26 30 28 25 24 23 22 21 20 19 18 16 17 14 13 9 4 353 350 348 349 19 35 49 118 88 87 56 64 84 85 80 76 78 83
42 43 39 37 36 36 34 31 26 31 34 31 32 28 24 17 16 16 17 16 14 12 12 11 7 357 358 353 356 44 52 74 119 119 99 82 72 58 82 81 78 73 75
60 53 52 46 44 38 37 35 33 31 32 35 37 34 29 23 14 13 17 16 19 17 5 14 9 4 1 350 4 32 67 77 84 96 99 74 69 69 85 79 77 81 76
82 66 56 51 47 41 39 40 36 35 33 30 35 37 27 23 21 12 18 20 19 17 12 5 17 10 3 358 1 21 46 55 90 104 98 88 79 65 94 104 93 74 81
85 70 58 53 54 49 43 42 42 41 38 36 33 37 29 19 21 17 19 28 25 19 13 5 9 12 10 18 10 10 36 63 56 42 105 109 103 103 101 100 100 101 70
96 79 69 65 61 57 54 49 50 45 42 35 35 40 32 33 25 23 22 34 32 21 9 3 357 17 11 18 24 32 34 54 79 62 65 117 94 101 106 117 125 120 109
104 91 79 78 70 63 57 57 53 47 43 41 35 38 41 25 25 23 22 32 34 27 15 6 358 14 11 18 24 26 28 36 44 86 77 53 96 85 128 116 115 95 79
112 105 91 89 83 73 71 66 59 51 46 38 36 30 40 27 22 19 26 33 39 28 26 17 9 17 13 5 21 37 40 29 32 47 61 60 93 112 112 112 96 90 85
128 120 111 108 100 92 83 73 62 60 55 46 33 37 40 34 25 24 28 27 39 32 28 28 11 12 15 13 14 31 37 52 53 54 56 60 64 76 94 102 106 120 107
139 132 119 110 109 103 94 84 76 66 64 54 45 41 36 37 26 23 31 20 37 31 31 28 20 14 22 26 22 15 35 26 34 52 51 50 51 47 42 42 85 89 115
133 133 121 108 98 99 95 88 84 73 63 60 55 41 42 37 25 26 27 23 31 34 31 20 20 18 21 32 37 31 31 27 33 44 49 46 44 41 33 30 28 27 53
138 134 124 119 116 113 104 97 85 95 79 63 39 38 40 33 24 18 18 27 36 38 35 26 20 24 27 28 30 29 34 39 42 49 52 42 43 40 34 37 40 48 41
134 127 123 116 114 123 123 115 105 95 84 72 45 27 30 26 17 12 8 15 38 53 41 32 31 29 32 29 28 32 27 21 34 46 54 56 45 3 8 99 101 90 71
142 137 133 135 129 121 112 91 94 81 70 61 43 27 23 30 13 4 4 355 17 50 41 35 34 34 39 38 29 27 22 25 29 35 37 13 10 21 34 349 34 346 72
146 142 139 137 142 128 103 95 83 53 63 83 64 47 8 32 11 18 12 1 12 27 58 50 31 21 23 19 24 32 24 25 26 14 15 17 19 27 11 342 341 20 64
144 146 151 141 151 144 131 110 91 89 81 66 66 55 45 36 21 28 32 15 14 45 50 60 45 29 23 13 13 12 27 21 9 7 17 15 12 14 0 3 23 34 46
149 148 149 146 149 155 146 140 141 106 73 70 63 59 46 37 31 38 54 38 36 34 58 61 54 38 21 16 11 15 15 14 336 18 18 10 351 1 5 7 5 37 34
148 148 150 149 145 156 151 152 153 162 161 123 59 36 51 38 38 38 43 47 28 20 31 52 57 42 28 24 10 5 4 12 17 14 13 3 357 355 8 12 15 4 22
147 152 146 140 136 132 133 137 136 136 130 126 137 114 26 32 22 31 51 68 50 26 9 30 48 48 44 21 17 358 2 2 346 8 17 6 352 349 27 20 62 38 336
147 146 145 139 139 133 142 144 150 148 143 140 127 101 94 236 49 20 22 41 68 42 10 350 353 37 50 25 3 7 351 16 8 11 7 10 358 3 24 8 20 11 39
148 148 147 139 147 146 148 158 155 150 151 146 119 139 101 75 89 19 0 51 42 62 360 344 322 358 25 44 6 12 7 15 24 360 15 9 353 20 9 33 12 26 10
152 152 154 154 143 154 151 153 154 157 158 155 149 147 131 151 136 155 194 145 108 75 93 321 318 331 21 45 30 3 8 15 11 2 22 3 350 36 346 24 11 20 5
152 152 150 152 150 154 149 157 166 166 167 169 164 168 178 178 163 169 164 199 154 193 133 286 324 312 326 147 88 67 30 24 359 351 343 5 2 7 9 33 4 0 29
158 162 158 158 147 165 163 163 175 176 171 168 176 177 175 173 177 170 154 172 207 176 166 177 210 299 314 303 221 133 119 150 30 11 359 6 33 0 7 25 36 34 29
165 161 162 164 163 171 165 169 178 179 177 175 176 178 171 166 171 178 158 166 207 223 193 195 180 193 229 269 280 276 113 80 89 89 331 22 80 64 50 33 5 8 21
168 168 164 162 166 174 171 174 181 183 182 179 176 179 175 174 181 187 166 160 195 209 200 209 189 208 219 246 252 243 214 148 152 149 95 96 68 63 74 84 38 46 16